When you browse on this site, cookies collect data to enhance your experience and personalize the content and advertising you see.
Visit our Privacy Policy to learn more. By continuing to use the site, you agree to this use of cookies and data.
  • In Hungary
  • List of Countries
  • For 7 days
  • Water Temperature
  • Satellite Maps
  • Weather Map
  • News
  • Weather Widgets
  • user-avatar
    Login

    Hourly Weather Bukavu

    Today, 23 April, Tuesday

    Time Temperature Precipitation Wind Pressure Humidity
    00:00 +22°C° 0 mm 1 mps 687 mmHg 98%
    01:00 +21°C° 0 mm 1 mps 686 mmHg 98%
    02:00 +21°C° 0 mm 1 mps 686 mmHg 98%
    03:00 +21°C° 0 mm 1 mps 686 mmHg 97%
    04:00 +20°C° 0 mm 1 mps 686 mmHg 97%
    05:00 +20°C° 0 mm 1 mps 686 mmHg 97%
    06:00 +21°C° 0 mm 1 mps 687 mmHg 90%
    07:00 +23°C° 0 mm 1 mps 687 mmHg 83%
    08:00 +25°C° 0 mm 1 mps 688 mmHg 76%
    09:00 +28°C° 0 mm 1 mps 688 mmHg 62%
    10:00 +31°C° 0 mm 1 mps 689 mmHg 49%
    11:00 +35°C° 0 mm 1 mps 689 mmHg 35%
    12:00 +36°C° 0 mm 1 mps 689 mmHg 31%
    13:00 +39°C° 0 mm 1 mps 688 mmHg 27%
    14:00 +40°C° 0 mm 1 mps 688 mmHg 23%
    15:00 +39°C° 0 mm 1 mps 687 mmHg 26%
    16:00 +34°C° 0 mm 0 mps 687 mmHg 29%
    17:00 +33°C° 0 mm 0 mps 686 mmHg 33%
    18:00 +30°C° 0 mm 0 mps 686 mmHg 39%
    19:00 +27°C° 0 mm 0 mps 686 mmHg 44%
    20:00 +24°C° 0 mm 0 mps 686 mmHg 50%
    21:00 +24°C° 0 mm 0 mps 687 mmHg 52%
    22:00 +23°C° 0 mm 0 mps 687 mmHg 53%
    23:00 +25°C° 0 mm 1 mps 688 mmHg 55%

    Tomorrow, 24 April, Wednesday

    Time Temperature Precipitation Wind Pressure Humidity
    00:00 +25°C° 0 mm 1 mps 687 mmHg 57%
    01:00 +24°C° 0 mm 1 mps 687 mmHg 60%
    02:00 +24°C° 0 mm 1 mps 687 mmHg 62%
    03:00 +24°C° 0 mm 1 mps 687 mmHg 64%
    04:00 +22°C° 0 mm 0 mps 687 mmHg 66%
    05:00 +21°C° 0 mm 0 mps 687 mmHg 68%
    06:00 +23°C° 0 mm 0 mps 688 mmHg 64%
    07:00 +26°C° 0 mm 1 mps 688 mmHg 61%
    08:00 +27°C° 0 mm 1 mps 689 mmHg 57%
    09:00 +30°C° 0 mm 1 mps 690 mmHg 49%
    10:00 +32°C° 0 mm 1 mps 690 mmHg 42%
    11:00 +35°C° 0 mm 1 mps 690 mmHg 34%
    12:00 +35°C° 0 mm 1 mps 690 mmHg 35%
    13:00 +34°C° 0 mm 1 mps 689 mmHg 36%
    14:00 +34°C° 0 mm 1 mps 688 mmHg 37%
    15:00 +31°C° 0.5 mm 1 mps 687 mmHg 52%
    16:00 +28°C° 0.5 mm 2 mps 686 mmHg 68%
    17:00 +25°C° 0.5 mm 2 mps 685 mmHg 83%
    18:00 +24°C° 0.2 mm 2 mps 686 mmHg 86%
    19:00 +24°C° 0.2 mm 2 mps 687 mmHg 88%
    20:00 +23°C° 0.2 mm 1 mps 688 mmHg 91%
    21:00 +23°C° 0.2 mm 1 mps 688 mmHg 92%
    22:00 +23°C° 0.2 mm 1 mps 688 mmHg 93%
    23:00 +23°C° 0.2 mm 1 mps 689 mmHg 94%

    Day after tomorrow, 25 April, Thursday

    Time Temperature Precipitation Wind Pressure Humidity
    00:00 +23°C° 0.1 mm 1 mps 689 mmHg 94%
    01:00 +21°C° 0.1 mm 0 mps 688 mmHg 94%
    02:00 +21°C° 0.1 mm 0 mps 688 mmHg 94%
    03:00 +22°C° 0.2 mm 1 mps 688 mmHg 95%
    04:00 +22°C° 0.2 mm 1 mps 688 mmHg 96%
    05:00 +22°C° 0.2 mm 1 mps 688 mmHg 96%
    06:00 +22°C° 0.5 mm 1 mps 688 mmHg 96%
    07:00 +23°C° 0.5 mm 1 mps 689 mmHg 96%
    08:00 +23°C° 0.5 mm 1 mps 689 mmHg 96%
    09:00 +24°C° 0.1 mm 2 mps 689 mmHg 88%
    10:00 +26°C° 0.1 mm 2 mps 689 mmHg 81%
    11:00 +28°C° 0.1 mm 2 mps 689 mmHg 73%
    12:00 +30°C° 0 mm 1 mps 689 mmHg 61%
    13:00 +32°C° 0 mm 1 mps 688 mmHg 49%
    14:00 +32°C° 0 mm 0 mps 687 mmHg 38%
    15:00 +31°C° 0 mm 0 mps 687 mmHg 43%
    16:00 +29°C° 0 mm 0 mps 686 mmHg 47%
    17:00 +28°C° 0 mm 0 mps 686 mmHg 52%
    18:00 +26°C° 0 mm 0 mps 686 mmHg 57%
    19:00 +24°C° 0 mm 0 mps 687 mmHg 62%
    20:00 +23°C° 0 mm 0 mps 687 mmHg 67%
    21:00 +22°C° 0 mm 0 mps 688 mmHg 73%
    22:00 +22°C° 0 mm 0 mps 688 mmHg 78%
    23:00 +23°C° 0 mm 1 mps 688 mmHg 83%

    26 April, Friday

    Time Temperature Precipitation Wind Pressure Humidity
    00:00 +23°C° 0.2 mm 1 mps 688 mmHg 87%
    01:00 +22°C° 0.2 mm 1 mps 687 mmHg 91%
    02:00 +22°C° 0.2 mm 1 mps 687 mmHg 96%
    03:00 +22°C° 0 mm 1 mps 687 mmHg 95%
    04:00 +21°C° 0 mm 2 mps 687 mmHg 94%
    05:00 +21°C° 0 mm 2 mps 687 mmHg 93%
    06:00 +23°C° 0 mm 2 mps 688 mmHg 87%
    07:00 +24°C° 0 mm 2 mps 688 mmHg 82%
    08:00 +25°C° 0 mm 1 mps 689 mmHg 76%
    09:00 +28°C° 0 mm 1 mps 689 mmHg 63%
    10:00 +31°C° 0 mm 1 mps 690 mmHg 51%
    11:00 +34°C° 0 mm 1 mps 690 mmHg 38%
    12:00 +35°C° 0 mm 1 mps 689 mmHg 36%
    13:00 +35°C° 0 mm 1 mps 688 mmHg 35%
    14:00 +36°C° 0 mm 1 mps 687 mmHg 33%
    15:00 +34°C° 0 mm 1 mps 687 mmHg 40%
    16:00 +32°C° 0 mm 1 mps 687 mmHg 47%
    17:00 +30°C° 0 mm 1 mps 686 mmHg 54%
    18:00 +29°C° 0 mm 1 mps 686 mmHg 58%
    19:00 +27°C° 0 mm 1 mps 687 mmHg 62%
    20:00 +26°C° 0 mm 1 mps 687 mmHg 67%
    21:00 +25°C° 0.1 mm 1 mps 687 mmHg 73%
    22:00 +24°C° 0.1 mm 1 mps 687 mmHg 79%
    23:00 +23°C° 0.1 mm 1 mps 688 mmHg 85%

    27 April, Saturday

    Time Temperature Precipitation Wind Pressure Humidity
    00:00 +23°C° 0.5 mm 1 mps 687 mmHg 89%
    01:00 +22°C° 0.5 mm 1 mps 687 mmHg 93%
    02:00 +22°C° 0.5 mm 1 mps 686 mmHg 98%
    03:00 +22°C° 0.1 mm 1 mps 686 mmHg 97%
    04:00 +22°C° 0.1 mm 1 mps 686 mmHg 97%
    05:00 +22°C° 0.1 mm 1 mps 686 mmHg 96%
    06:00 +22°C° 0 mm 1 mps 687 mmHg 95%
    07:00 +22°C° 0 mm 1 mps 687 mmHg 94%
    08:00 +23°C° 0 mm 1 mps 688 mmHg 93%
    09:00 +25°C° 0.1 mm 1 mps 688 mmHg 85%
    10:00 +26°C° 0.1 mm 1 mps 688 mmHg 77%
    11:00 +28°C° 0.1 mm 1 mps 688 mmHg 69%
    12:00 +31°C° 0 mm 1 mps 688 mmHg 58%
    13:00 +33°C° 0 mm 1 mps 687 mmHg 46%
    14:00 +36°C° 0 mm 1 mps 687 mmHg 34%
    15:00 +35°C° 0 mm 1 mps 687 mmHg 39%
    16:00 +33°C° 0 mm 1 mps 686 mmHg 43%
    17:00 +32°C° 0 mm 1 mps 686 mmHg 48%
    18:00 +29°C° 0.1 mm 1 mps 686 mmHg 58%
    19:00 +27°C° 0.1 mm 1 mps 687 mmHg 68%
    20:00 +24°C° 0.1 mm 1 mps 687 mmHg 79%
    21:00 +24°C° 0.1 mm 1 mps 687 mmHg 82%
    22:00 +21°C° 0.1 mm 0 mps 687 mmHg 84%
    23:00 +21°C° 0.1 mm 0 mps 687 mmHg 87%

    28 April, Sunday

    Time Temperature Precipitation Wind Pressure Humidity
    00:00 +20°C° 0.1 mm 0 mps 687 mmHg 90%
    01:00 +20°C° 0.1 mm 0 mps 686 mmHg 92%
    02:00 +20°C° 0.1 mm 0 mps 686 mmHg 94%
    03:00 +19°C° 0.1 mm 0 mps 686 mmHg 95%
    04:00 +19°C° 0.1 mm 0 mps 686 mmHg 95%
    05:00 +21°C° 0.1 mm 1 mps 686 mmHg 96%
    06:00 +20°C° 0.8 mm 0 mps 687 mmHg 94%
    07:00 +21°C° 0.8 mm 0 mps 688 mmHg 92%
    08:00 +23°C° 0.8 mm 0 mps 689 mmHg 91%
    09:00 +29°C° 0 mm 1 mps 689 mmHg 72%
    10:00 +33°C° 0 mm 1 mps 689 mmHg 53%
    11:00 +37°C° 0 mm 1 mps 689 mmHg 34%
    12:00 +36°C° 0 mm 1 mps 688 mmHg 35%
    13:00 +36°C° 0 mm 1 mps 687 mmHg 36%
    14:00 +34°C° 0 mm 0 mps 686 mmHg 36%
    15:00 +33°C° 0 mm 0 mps 686 mmHg 39%
    16:00 +32°C° 0 mm 0 mps 686 mmHg 42%
    17:00 +31°C° 0 mm 0 mps 686 mmHg 45%
    18:00 +31°C° 0 mm 1 mps 686 mmHg 52%
    19:00 +29°C° 0 mm 1 mps 686 mmHg 59%
    20:00 +26°C° 0 mm 1 mps 686 mmHg 66%
    21:00 +26°C° 0.1 mm 1 mps 687 mmHg 70%
    22:00 +25°C° 0.1 mm 1 mps 687 mmHg 74%
    23:00 +24°C° 0.1 mm 1 mps 687 mmHg 78%
    Show more